Temp
-10 -10 -11 -11 -11 -11 -11 -11 -11 -11 -11 -11 -11 -11 -11 -11 -11 -11 -11 -12 -12 -12 -12 -12 -12 -12 -12 -12 -12 -12 -12 -12 -12 -12 -12 -12 -12 -12 -12 -13 -13 -13
-11 -11 -11 -11 -11 -11 -11 -11 -11 -11 -11 -11 -11 -11 -11 -12 -11 -11 -11 -12 -12 -12 -12 -12 -12 -12 -12 -12 -12 -12 -12 -12 -12 -12 -12 -12 -12 -13 -13 -13 -13 -14
-11 -11 -11 -11 -11 -11 -11 -11 -11 -11 -11 -11 -11 -11 -12 -12 -12 -11 -12 -12 -12 -12 -12 -12 -12 -12 -12 -12 -12 -12 -12 -12 -12 -12 -13 -13 -13 -13 -13 -14 -14 -14
-11 -11 -11 -11 -11 -11 -11 -11 -11 -11 -11 -12 -12 -12 -12 -12 -12 -12 -12 -12 -12 -12 -12 -12 -12 -12 -12 -12 -12 -12 -12 -13 -13 -13 -13 -13 -13 -14 -14 -14 -14 -14
-11 -11 -11 -11 -11 -11 -11 -11 -12 -12 -12 -12 -12 -12 -12 -12 -12 -12 -12 -12 -12 -12 -12 -12 -12 -12 -12 -12 -13 -13 -13 -13 -13 -13 -13 -13 -14 -14 -14 -14 -15 -15
-11 -11 -11 -11 -11 -11 -12 -12 -12 -12 -12 -12 -12 -12 -12 -12 -12 -12 -12 -12 -12 -12 -12 -12 -12 -12 -13 -13 -13 -13 -13 -13 -13 -13 -14 -14 -14 -15 -15 -15 -15 -15
-12 -12 -12 -12 -12 -12 -12 -12 -12 -12 -12 -12 -12 -12 -12 -12 -12 -12 -12 -12 -12 -12 -13 -13 -13 -13 -13 -13 -13 -13 -13 -13 -13 -14 -14 -14 -15 -15 -15 -15 -16 -16
-12 -12 -12 -12 -12 -12 -12 -12 -12 -12 -12 -12 -12 -12 -12 -12 -12 -12 -12 -12 -13 -13 -13 -13 -13 -13 -13 -13 -13 -13 -13 -14 -14 -14 -15 -15 -15 -15 -15 -16 -16 -16
-12 -12 -12 -12 -12 -12 -12 -12 -12 -12 -12 -12 -12 -12 -12 -12 -13 -13 -13 -13 -13 -13 -13 -13 -13 -13 -13 -13 -13 -14 -14 -14 -14 -15 -15 -15 -15 -16 -16 -16 -17 -17
-12 -12 -12 -12 -12 -12 -12 -12 -12 -12 -12 -12 -12 -12 -13 -13 -13 -13 -13 -13 -13 -13 -13 -13 -13 -13 -13 -14 -14 -14 -14 -14 -15 -15 -15 -15 -16 -16 -16 -17 -17 -17
-12 -12 -12 -12 -12 -12 -12 -12 -12 -12 -12 -12 -13 -13 -13 -13 -13 -13 -13 -13 -13 -13 -13 -13 -14 -14 -14 -14 -14 -14 -15 -15 -15 -15 -16 -16 -16 -16 -17 -17 -17 -17
-12 -12 -12 -12 -12 -12 -12 -12 -12 -12 -13 -13 -13 -13 -13 -13 -13 -13 -13 -13 -13 -14 -14 -14 -14 -14 -14 -15 -15 -15 -15 -15 -16 -16 -16 -16 -17 -17 -17 -17 -17 -17
-12 -12 -12 -12 -12 -12 -13 -13 -13 -13 -13 -13 -13 -13 -13 -13 -13 -13 -13 -14 -14 -14 -14 -14 -14 -15 -15 -15 -15 -15 -16 -16 -16 -16 -16 -17 -17 -17 -17 -17 -17 -18
-12 -12 -12 -12 -13 -13 -13 -13 -13 -13 -13 -13 -13 -13 -13 -13 -13 -14 -14 -14 -14 -14 -14 -15 -15 -15 -15 -15 -16 -16 -16 -16 -16 -16 -17 -17 -17 -17 -17 -18 -18 -18
-13 -13 -13 -13 -13 -13 -13 -13 -13 -13 -13 -13 -13 -13 -13 -13 -14 -14 -14 -14 -15 -15 -15 -15 -15 -16 -16 -16 -16 -16 -16 -16 -17 -17 -17 -17 -17 -18 -18 -18 -18 -18
-13 -13 -13 -13 -13 -13 -13 -13 -13 -13 -13 -13 -14 -14 -14 -14 -14 -14 -15 -15 -15 -15 -15 -16 -16 -16 -16 -16 -16 -17 -17 -17 -17 -17 -17 -17 -18 -18 -18 -18 -18 -18
-13 -13 -13 -14 -14 -14 -14 -14 -14 -14 -14 -14 -14 -14 -14 -14 -15 -15 -15 -15 -15 -16 -16 -16 -16 -16 -17 -17 -17 -17 -17 -17 -17 -17 -18 -18 -18 -18 -18 -18 -18 -18
-14 -14 -14 -14 -14 -14 -14 -14 -14 -14 -14 -14 -15 -15 -15 -15 -15 -15 -15 -15 -16 -16 -16 -16 -17 -17 -17 -17 -17 -17 -17 -17 -17 -18 -18 -18 -18 -18 -18 -18 -18 -19
-14 -14 -14 -14 -15 -15 -15 -15 -15 -15 -15 -15 -15 -15 -15 -15 -15 -15 -16 -16 -16 -16 -17 -17 -17 -17 -17 -17 -17 -17 -17 -18 -18 -18 -18 -18 -18 -19 -19 -19 -19 -19
-15 -15 -15 -15 -15 -15 -15 -15 -15 -15 -15 -15 -15 -15 -15 -16 -16 -16 -16 -16 -17 -17 -17 -17 -17 -17 -18 -18 -18 -18 -18 -18 -18 -18 -18 -19 -19 -19 -19 -19 -19 -19
-15 -15 -15 -15 -15 -15 -15 -15 -16 -16 -16 -16 -16 -16 -16 -16 -16 -16 -17 -17 -17 -17 -17 -17 -18 -18 -18 -18 -18 -18 -18 -18 -19 -19 -19 -19 -19 -19 -19 -19 -19 -19
-16 -16 -16 -16 -16 -16 -16 -16 -16 -16 -16 -16 -16 -16 -16 -16 -17 -17 -17 -17 -17 -17 -17 -18 -18 -18 -18 -18 -18 -19 -19 -19 -19 -19 -19 -19 -19 -19 -19 -19 -20 -20
-16 -16 -16 -16 -16 -16 -16 -16 -16 -16 -16 -16 -16 -16 -17 -17 -17 -17 -17 -17 -17 -17 -18 -18 -18 -18 -19 -19 -19 -19 -19 -19 -19 -19 -19 -19 -19 -19 -19 -20 -20 -20
-16 -16 -16 -16 -16 -16 -17 -17 -17 -17 -17 -17 -17 -17 -17 -17 -17 -17 -17 -17 -18 -18 -18 -18 -19 -19 -19 -19 -19 -19 -19 -19 -19 -19 -19 -19 -19 -19 -20 -20 -20 -20
-17 -17 -17 -17 -17 -17 -17 -17 -17 -17 -17 -17 -17 -17 -17 -17 -17 -17 -18 -18 -18 -19 -19 -19 -19 -19 -19 -19 -19 -19 -19 -19 -19 -19 -19 -19 -20 -20 -20 -20 -20 -20
-17 -17 -17 -17 -17 -17 -17 -17 -17 -17 -17 -17 -17 -17 -17 -17 -18 -18 -18 -19 -19 -19 -19 -19 -19 -19 -19 -19 -19 -19 -19 -19 -19 -19 -20 -20 -20 -20 -20 -20 -20 -20
Height
5838 5837 5838 5838 5838 5837 5837 5837 5837 5836 5836 5836 5836 5835 5834 5833 5832 5831 5830 5829 5827 5826 5825 5823 5822 5820 5818 5816 5815 5813 5811 5809 5808 5806 5804 5802 5800 5798 5795 5793 5790 5788
5833 5833 5833 5833 5833 5833 5832 5832 5831 5831 5831 5831 5830 5830 5829 5827 5826 5826 5825 5824 5823 5821 5820 5818 5816 5815 5813 5811 5809 5807 5806 5804 5802 5800 5798 5796 5794 5792 5789 5787 5784 5782
5828 5828 5828 5828 5828 5828 5827 5827 5826 5827 5827 5826 5826 5825 5824 5822 5821 5821 5820 5819 5817 5816 5814 5813 5811 5809 5807 5805 5804 5802 5800 5798 5796 5795 5792 5790 5788 5786 5783 5781 5778 5776
5823 5823 5823 5823 5823 5823 5822 5822 5822 5822 5822 5821 5820 5819 5818 5817 5816 5815 5815 5813 5812 5810 5809 5807 5805 5803 5801 5800 5798 5796 5794 5793 5790 5789 5786 5784 5782 5780 5777 5775 5772 5770
5818 5818 5818 5818 5817 5817 5817 5817 5817 5817 5816 5816 5815 5814 5813 5812 5810 5810 5809 5807 5806 5804 5803 5801 5799 5798 5796 5794 5792 5790 5789 5787 5784 5782 5780 5778 5776 5773 5771 5768 5766 5763
5812 5812 5812 5812 5812 5812 5812 5812 5812 5811 5811 5811 5809 5808 5807 5806 5805 5804 5803 5801 5800 5798 5797 5795 5793 5792 5790 5788 5786 5785 5783 5781 5778 5776 5774 5772 5769 5767 5764 5762 5760 5757
5806 5806 5806 5806 5806 5806 5806 5806 5806 5806 5806 5805 5804 5802 5801 5800 5799 5798 5797 5796 5794 5792 5791 5789 5787 5786 5784 5782 5780 5778 5777 5774 5772 5770 5768 5766 5763 5761 5758 5756 5753 5751
5800 5800 5800 5800 5800 5800 5800 5800 5801 5800 5800 5799 5798 5796 5795 5794 5793 5792 5790 5789 5788 5787 5785 5783 5781 5779 5778 5776 5774 5772 5770 5768 5766 5764 5762 5759 5757 5755 5752 5750 5747 5744
5794 5794 5794 5794 5794 5794 5794 5794 5794 5794 5793 5792 5791 5790 5789 5788 5787 5786 5784 5783 5782 5780 5779 5777 5775 5773 5771 5770 5768 5766 5764 5762 5760 5758 5755 5753 5751 5748 5746 5743 5741 5738
5788 5788 5788 5788 5788 5788 5788 5788 5788 5787 5786 5786 5785 5784 5783 5782 5781 5780 5778 5777 5776 5774 5772 5771 5769 5767 5765 5763 5761 5759 5757 5755 5754 5751 5749 5747 5744 5742 5739 5737 5734 5731
5782 5782 5782 5782 5782 5782 5781 5781 5781 5780 5780 5780 5779 5778 5777 5776 5775 5774 5772 5771 5769 5768 5766 5764 5762 5761 5759 5757 5755 5753 5751 5749 5747 5745 5743 5740 5738 5735 5733 5730 5728 5725
5775 5775 5775 5775 5775 5775 5775 5775 5774 5774 5774 5773 5772 5772 5771 5769 5768 5767 5766 5764 5762 5761 5759 5757 5756 5754 5752 5750 5748 5746 5745 5743 5741 5739 5736 5734 5731 5729 5726 5724 5721 5718
5768 5768 5768 5768 5768 5768 5768 5768 5768 5767 5767 5767 5766 5765 5764 5763 5761 5760 5759 5757 5755 5754 5752 5751 5749 5747 5745 5743 5742 5740 5738 5736 5734 5732 5730 5727 5725 5722 5720 5717 5715 5711
5761 5761 5761 5761 5761 5761 5761 5761 5761 5761 5760 5760 5759 5758 5757 5756 5755 5753 5752 5750 5749 5747 5745 5744 5742 5740 5739 5737 5735 5734 5732 5730 5728 5725 5723 5721 5718 5716 5713 5711 5708 5705
5755 5755 5755 5755 5755 5755 5755 5754 5754 5754 5753 5753 5752 5751 5750 5749 5748 5746 5745 5743 5742 5740 5739 5737 5735 5734 5732 5730 5729 5727 5725 5723 5721 5719 5716 5714 5712 5709 5707 5704 5701 5698
5748 5748 5748 5748 5748 5748 5748 5748 5747 5746 5746 5746 5745 5744 5743 5742 5740 5739 5737 5736 5735 5733 5732 5730 5729 5727 5725 5724 5722 5720 5718 5716 5714 5712 5710 5708 5705 5703 5700 5698 5695 5691
5740 5741 5741 5741 5741 5741 5741 5740 5740 5739 5739 5738 5738 5737 5735 5734 5733 5731 5730 5729 5728 5726 5725 5723 5722 5720 5719 5717 5715 5714 5712 5710 5708 5706 5703 5701 5699 5696 5694 5691 5688 5684
5733 5733 5734 5734 5734 5734 5733 5733 5732 5732 5732 5731 5730 5729 5727 5727 5726 5725 5724 5722 5721 5720 5718 5717 5715 5714 5712 5710 5709 5707 5705 5704 5701 5699 5697 5694 5692 5690 5687 5684 5681 5677
5725 5726 5726 5726 5726 5726 5726 5726 5725 5725 5724 5723 5722 5721 5720 5720 5719 5717 5716 5715 5714 5712 5711 5710 5709 5707 5706 5704 5702 5701 5699 5697 5694 5692 5690 5688 5685 5683 5680 5677 5674 5670
5718 5719 5719 5719 5719 5718 5718 5718 5718 5717 5716 5715 5715 5714 5713 5712 5711 5710 5709 5708 5707 5706 5705 5703 5702 5700 5699 5697 5696 5694 5692 5690 5688 5685 5683 5681 5678 5676 5672 5670 5667 5664
5711 5711 5711 5711 5711 5711 5711 5711 5710 5709 5709 5708 5708 5707 5706 5705 5704 5703 5702 5701 5700 5699 5698 5697 5695 5694 5692 5690 5688 5687 5685 5683 5681 5678 5676 5674 5671 5668 5665 5663 5660 5657
5703 5703 5703 5703 5704 5704 5704 5703 5702 5702 5702 5701 5701 5701 5700 5699 5698 5697 5696 5695 5694 5693 5691 5690 5688 5687 5685 5683 5681 5680 5678 5676 5674 5671 5669 5666 5664 5661 5658 5656 5653 5650
5696 5696 5696 5696 5697 5696 5696 5696 5696 5696 5696 5696 5696 5695 5694 5693 5692 5691 5690 5688 5687 5686 5684 5683 5681 5679 5678 5676 5674 5673 5670 5668 5666 5664 5662 5659 5657 5654 5651 5649 5646 5643
5689 5690 5690 5690 5690 5690 5690 5690 5690 5690 5690 5690 5690 5689 5688 5687 5686 5684 5683 5682 5680 5678 5677 5675 5674 5672 5671 5669 5667 5665 5663 5661 5659 5657 5655 5652 5650 5647 5644 5642 5639 5636
5684 5684 5684 5684 5684 5684 5684 5685 5684 5684 5684 5684 5683 5682 5681 5680 5679 5677 5676 5674 5673 5671 5669 5668 5666 5665 5664 5662 5660 5658 5655 5653 5652 5650 5648 5645 5643 5640 5638 5635 5632 5629
5679 5679 5679 5679 5679 5679 5679 5679 5678 5678 5678 5677 5676 5675 5674 5673 5671 5670 5669 5667 5666 5664 5663 5661 5660 5658 5657 5655 5653 5650 5648 5646 5645 5643 5641 5638 5636 5633 5631 5628 5625 5621
Wind_Speed
41 42 42 41 40 40 40 41 41 40 40 40 40 40 42 43 44 44 44 44 45 45 46 47 47 47 48 49 50 51 51 52 52 53 54 55 56 56 57 58 58 58
43 43 43 42 42 41 42 42 42 42 42 42 41 42 43 44 45 45 45 46 46 47 47 48 49 49 50 51 52 52 53 54 54 55 55 56 57 58 58 58 58 58
44 44 44 43 43 43 44 44 44 44 43 42 42 43 44 46 47 46 46 47 48 48 48 49 50 51 52 53 53 54 55 55 56 56 57 58 58 58 58 58 58 58
45 45 45 45 45 45 46 46 45 44 44 44 44 45 46 47 48 47 47 48 49 49 50 51 52 52 53 54 55 55 56 56 57 58 58 59 58 58 58 58 58 57
47 47 46 47 47 47 47 47 46 46 45 45 46 47 47 48 49 49 49 50 50 51 51 52 53 54 55 55 56 57 57 58 58 59 59 59 58 57 57 57 57 56
48 48 48 48 48 48 48 48 48 48 47 47 47 48 49 50 50 50 50 51 52 52 53 53 54 55 56 56 57 58 58 59 59 59 59 58 57 57 57 57 56 55
49 50 50 50 50 50 50 50 50 49 49 49 49 50 50 51 51 52 52 52 53 53 54 55 55 56 57 58 58 59 59 59 59 59 58 57 57 57 57 56 55 55
51 51 51 52 52 52 52 51 51 51 50 51 51 52 52 52 52 53 53 54 54 54 55 56 56 57 58 59 59 59 59 59 59 58 57 56 57 57 56 55 55 56
52 52 52 53 53 53 52 52 52 52 52 53 53 53 53 53 53 53 54 54 54 55 56 57 58 59 59 59 59 59 59 59 58 57 56 56 56 56 55 55 55 57
52 53 53 53 53 53 53 54 54 54 54 54 54 54 54 54 54 54 54 55 55 56 57 58 59 59 59 59 59 58 58 58 57 56 56 56 55 55 55 56 57 59
54 54 54 54 54 55 55 55 55 56 56 56 55 55 54 54 54 54 55 55 56 57 58 58 59 58 58 58 58 58 57 56 56 55 55 55 55 56 56 57 60 62
56 55 55 55 55 56 56 56 56 57 56 56 55 54 54 54 54 55 55 56 57 57 58 58 58 57 57 57 57 57 56 55 55 55 56 56 56 57 58 60 62 63
56 56 55 55 56 56 56 56 56 56 56 55 54 54 54 55 55 56 56 56 57 57 57 57 57 57 57 56 56 55 55 55 56 56 57 57 57 59 60 62 63 65
56 56 56 55 55 55 56 56 56 55 55 55 54 55 55 55 56 56 56 56 57 57 56 56 56 56 56 56 55 56 56 57 57 57 57 58 59 60 62 63 65 65
56 56 55 55 55 55 55 55 55 55 55 55 55 55 56 56 56 56 56 56 56 56 55 55 55 55 56 56 56 56 57 58 58 58 59 60 61 62 63 64 65 65
56 55 55 54 54 54 54 55 55 55 55 55 55 55 56 56 56 56 55 55 55 55 55 55 56 56 57 57 57 57 58 59 59 59 60 61 62 63 64 65 65 65
55 55 55 55 55 55 55 56 56 56 56 56 56 56 56 56 56 55 55 55 55 56 56 56 56 57 57 57 58 58 59 59 60 61 61 62 63 64 64 64 65 66
56 55 55 55 56 56 56 57 57 57 57 57 57 57 57 57 56 56 56 57 57 57 56 56 56 56 57 57 58 59 60 60 61 61 62 63 63 64 64 64 65 67
55 55 54 55 55 55 56 56 56 57 57 58 58 58 58 58 58 58 58 58 57 56 56 56 56 57 57 58 59 60 60 61 61 61 62 63 63 63 64 66 67 68
53 53 53 54 55 55 56 57 57 58 58 58 59 59 59 59 59 58 58 57 56 56 56 56 57 58 58 59 60 60 60 60 61 61 62 62 63 64 66 67 67 67
54 54 54 55 55 56 56 57 57 57 58 58 58 59 59 58 58 58 57 56 56 56 57 57 58 59 59 59 59 59 59 60 60 61 62 63 64 66 67 67 67 66
55 55 55 55 55 56 56 57 57 57 58 58 59 59 59 58 58 57 57 57 57 58 58 59 59 59 58 58 58 58 59 60 61 62 63 64 66 67 67 67 65 65
56 56 56 57 57 57 57 57 58 58 58 58 58 58 58 57 57 57 58 58 59 59 59 58 57 57 57 57 58 58 60 61 62 63 65 66 67 67 66 65 64 65
56 57 57 57 57 57 57 57 57 57 57 57 57 57 58 58 58 58 59 58 58 57 56 56 55 56 56 57 58 60 61 63 64 65 66 67 66 65 64 64 65 66
55 55 56 56 56 56 56 56 56 57 57 57 57 58 58 58 58 58 57 56 55 54 54 55 55 56 57 58 60 61 63 64 66 66 66 66 65 64 64 65 66 67
54 54 54 55 55 55 55 56 56 57 57 58 58 58 58 58 57 55 54 54 54 54 55 56 57 58 59 60 62 63 65 66 66 66 65 64 64 64 65 65 67 68
Wind_Direction
256 258 259 260 261 262 264 265 267 269 271 273 274 275 276 278 279 280 281 282 282 283 283 284 284 285 285 286 287 287 289 290 290 291 292 292 293 293 294 295 295 295
257 258 259 260 261 262 263 264 266 267 270 272 273 275 276 278 278 279 281 281 282 282 283 283 284 284 285 286 286 287 288 289 290 291 292 292 293 294 294 295 295 295
257 258 259 259 259 260 261 262 265 267 270 272 274 275 275 277 278 279 280 281 281 282 282 283 283 284 285 285 286 287 288 289 290 291 291 292 293 294 294 294 294 295
258 258 258 258 257 258 260 262 265 267 269 271 272 273 274 275 277 278 279 280 281 282 282 282 283 283 284 285 286 287 288 289 290 291 291 292 293 293 293 293 294 295
259 259 259 258 258 259 260 262 264 266 268 270 271 272 273 274 276 278 279 280 280 281 281 282 282 283 284 285 286 287 288 289 290 290 291 292 293 293 293 293 295 296
259 259 259 259 259 260 261 262 264 266 268 270 271 272 273 274 276 277 278 279 280 280 281 282 282 283 284 285 286 287 288 289 289 290 291 292 292 292 292 294 295 295
257 258 258 259 259 260 261 262 264 266 268 270 271 272 273 274 275 277 277 278 279 280 281 281 282 283 284 285 286 287 288 288 289 290 291 291 291 291 293 294 295 294
257 258 259 259 260 261 262 264 265 267 268 270 271 272 273 274 275 276 277 277 279 280 280 281 282 283 284 285 286 286 287 288 289 290 291 290 291 292 293 294 294 294
257 258 260 260 261 262 263 265 266 267 268 269 270 272 273 274 274 275 276 277 278 279 280 281 282 283 284 285 285 286 287 288 289 290 290 290 291 292 292 293 293 295
257 258 259 260 262 263 264 265 266 267 268 269 270 271 272 273 273 274 276 277 278 279 280 281 282 283 283 284 285 286 287 288 289 289 289 290 291 291 292 292 294 297
257 258 259 260 261 262 263 264 265 266 267 268 269 269 271 272 273 274 276 277 278 279 280 281 282 283 283 284 285 286 287 288 288 288 288 289 290 290 291 293 296 298
256 257 258 259 260 261 263 263 264 265 266 267 268 269 270 272 273 275 276 277 278 279 280 281 281 282 283 284 285 286 287 287 287 287 288 289 289 290 292 295 297 299
255 257 258 259 260 261 262 263 264 265 266 266 268 269 270 272 273 274 275 276 277 278 279 280 281 281 282 283 284 285 286 286 286 287 287 288 289 291 294 296 298 299
255 256 257 258 260 261 262 263 264 265 266 267 268 269 270 271 272 273 274 275 276 277 278 279 280 281 282 283 284 284 285 285 286 286 287 289 291 293 295 297 298 300
255 256 257 258 259 260 262 263 264 266 266 267 268 269 270 271 272 273 274 274 275 276 277 278 279 280 281 282 283 283 284 284 285 286 288 290 292 294 295 297 299 301
256 257 258 259 260 261 262 263 264 265 266 267 269 269 270 271 271 272 273 274 274 275 277 278 279 280 280 281 282 282 283 284 285 287 289 291 293 294 296 298 300 302
255 256 257 258 259 260 261 261 262 263 265 266 267 268 269 269 270 271 272 273 274 276 277 278 278 279 279 280 281 281 283 285 287 289 291 292 293 295 297 299 301 303
254 255 256 258 258 259 260 261 261 262 264 265 265 266 267 268 269 270 272 273 275 276 276 277 277 278 279 279 281 282 284 287 288 290 291 293 294 297 299 301 302 304
254 255 255 256 257 258 259 260 261 262 262 263 263 264 265 267 268 270 272 273 274 274 275 276 277 278 279 280 282 284 286 288 289 290 292 294 296 298 300 301 303 303
253 253 254 255 256 257 258 259 260 260 261 261 262 264 265 267 269 270 271 272 273 274 275 276 278 279 281 282 284 286 287 288 290 292 294 296 298 299 300 302 302 303
253 253 254 255 256 257 258 258 259 260 260 262 263 265 267 268 270 271 272 273 274 275 277 278 280 281 282 283 285 286 288 290 292 294 296 297 298 299 300 301 302 302
254 254 254 255 256 257 258 259 260 261 262 264 265 267 269 270 271 272 273 274 276 277 278 279 280 281 283 284 286 288 290 292 294 296 297 297 298 299 300 301 301 302
255 255 256 257 258 259 260 261 262 263 265 266 267 269 270 271 272 273 274 276 277 278 279 279 280 282 284 287 289 291 292 294 295 296 296 297 298 298 299 300 301 302
256 257 258 259 260 261 262 263 264 265 266 268 269 270 271 272 273 274 275 276 277 278 279 280 283 285 287 289 291 292 293 294 294 295 295 296 297 298 299 301 302 302
258 259 260 261 262 263 264 265 266 267 268 269 270 271 272 273 274 274 275 276 278 279 281 284 286 288 289 290 291 292 292 292 293 294 295 296 297 298 299 301 301 302
260 261 262 263 263 264 265 267 268 269 271 272 273 274 274 275 275 276 277 279 281 283 285 286 287 289 289 290 290 290 291 291 292 293 295 296 297 298 299 300 301 301